Regional Weather Roundup
Issued by NWS Jackson, KY

Home | Current Version | Previous Version | Graphics & Text | Print | Product List | Glossary On
Versions: 1 2 3 4 5 6 7 8 9 10 11 12 13 14 15 16 17 18 19 20 21 22 23 24 25 26 27 28 29 30 31 32 33 34 35 36 37 38 39 40 41 42 43 44 45 46 47 48 49 50
000
ASUS43 KJKL 262310
RWRJKL

EAST KENTUCKY HOURLY WEATHER ROUNDUP
NATIONAL WEATHER SERVICE JACKSON KY
700 PM EDT MON JUN 26 2017

NOTE: "FAIR" INDICATES FEW OR NO CLOUDS BELOW 12,000 FEET WITH
NO SIGNIFICANT WEATHER AND/OR OBSTRUCTIONS TO VISIBILITY.

* THESE REPORTS ARE NOT UNDER NWS QUALITY CONTROL AND MAY NOT
  REPORT WEATHER SUCH AS PRECIPITATION AND FOG.

KYZ079-080-083-085-087-088-110-112-115-119-120-270000
...EASTERN KENTUCKY...

CITY           SKY/WX    TMP DP  RH WIND       PRES   REMARKS
JACKSON        SUNNY     74  52  46 MISG      30.11S
LONDON         MOSUNNY   74  48  39 N10       30.12R
SOMERSET*      MOSUNNY   73  48  40 CALM      30.12F
MONTICELLO*    SUNNY     75  50  41 NW8       30.13F
WILLIAMSBURG*  CLEAR     73  50  43 NW7       30.11S
MIDDLESBORO*   SUNNY     76  52  43 NW8       30.10S
HARLAN APT*    CLEAR     75  46  35 W5        30.11R
PIKE CO APT*     N/A     72  52  50 NW8       30.10S
BIG SANDY APT* CLEAR     72  49  44 N5        30.10S
MOREHEAD APT*  PTCLDY    73  48  40 NW8       30.12S HAZE
ASHLAND*       MOSUNNY   73  52  46 W8        30.07S
$$

KYZ035-036-041-042-044-050-067-078-099-270000
...CENTRAL KENTUCKY...

CITY           SKY/WX    TMP DP  RH WIND       PRES   REMARKS
MT STERLING*   MOSUNNY   72  50  46 NW3       30.12F
FLEMING/MASON* MOSUNNY   72  49  42 NW9       30.10F
DANVILLE*      SUNNY     73  46  38 NW6       30.12F
LEXINGTON      MOSUNNY   74  47  38 W6        30.10F
FRANKFORT      MOSUNNY   74  47  38 NW5       30.08F
LOUISVILLE     PTSUNNY   75  48  38 NW14      30.08F
LEBANON*         N/A    N/A N/A N/A MISG        N/A
GLASGOW*       MOSUNNY   77  49  37 N5        30.10F
BOWLING GREEN  CLOUDY    77  51  40 N5        30.10F
$$

KYZ091>093-OHZ055-061-077-WVZ005-015-034-035-042-270000
...SOUTHERN OHIO/WEST VIRGINIA...

CITY           SKY/WX    TMP DP  RH WIND       PRES   REMARKS
COVINGTON      CLOUDY    70  51  51 W10       30.07F
COLUMBUS       CLOUDY    70  45  40 W16       30.05S
DAYTON         CLOUDY    68  48  48 W13       30.06F
WILMINGTON     CLOUDY    69  49  48 W14       30.06S
HUNTINGTON     MOSUNNY   72  47  40 W7        30.08F
CHARLESTON     MOSUNNY   74  48  39 NW8       30.08F
PINEVILLE*     SUNNY     73  50  43 MISG      30.14R
BECKLEY        MOSUNNY   70  45  40 NW10      30.11S
BLUEFIELD      MOSUNNY   68  46  45 VRB7      30.13S
LOGAN CO APT*    N/A     72  50  46 NW7       30.10S
$$

VAZ002-007-008-TNZ017-027-036-066-071-270000
...SOUTHWEST VIRGINIA/EAST TENNESSEE...

CITY           SKY/WX    TMP DP  RH WIND       PRES   REMARKS
WISE*          SUNNY     70  46  43 CALM      30.15S
JONESVILLE*      N/A     77  52  41 NW6       30.11S
ABINGDON*      MOSUNNY   75  52  44 NW9       30.10F
BRISTOL        MOSUNNY   75  56  51 SW9       30.09S
MORRISTOWN*    CLEAR     77  55  47 W8G14     30.08F
SEVIERVILLE*   PTCLDY    79  54  41 W7        30.08S
KNOXVILLE      MOSUNNY   77  55  46 W9        30.08F
LAFOLLETTE*    CLEAR     77  50  38 VRB3      30.13S
OAK RIDGE      SUNNY     81  46  29 VRB5      30.10F
CROSSVILLE     SUNNY     72  50  45 NW7       30.14F
NASHVILLE      MOSUNNY   81  52  36 N5        30.09F
$$

...KEY TO REMARKS...
VSB - VISIBILITY IN MILES
WCI - WIND CHILL INDEX
HX  - HEAT INDEX

$$



USA.gov is the U.S. government's official web portal to all federal, state and local government web resources and services.